Regional Weather Roundup
Issued by NWS Charleston, SC

Current Version | Previous Version | Graphics & Text | Print | Product List | Glossary On
Versions: 1 2 3 4 5 6 7 8 9 10 11 12 13 14 15 16 17 18 19 20 21 22 23 24 25 26 27 28 29 30 31 32 33 34 35 36 37 38 39 40 41 42 43 44 45 46 47 48 49 50
000
ASUS42 KCHS 292328
RWRCHS

REGIONAL WEATHER ROUNDUP
NATIONAL WEATHER SERVICE CHARLESTON SC
700 PM EDT MON AUG 29 2016

NOTE: "FAIR" INDICATES FEW OR NO CLOUDS BELOW 12,000 FEET WITH NO
SIGNIFICANT WEATHER AND/OR OBSTRUCTIONS TO VISIBILITY.

NOT ALL STATIONS ARE QUALITY CONTROLLED. USE DATA WITH CAUTION...
ESPECIALLY DEWPOINT OBSERVATIONS.

SCZ027-030-031-034>040-042>050-300000-
...SOUTHEAST SOUTH CAROLINA...

CITY           SKY/WX    TMP DP  RH WIND       PRES   REMARKS
N CHARLESTON   CLOUDY    80  74  81 NE5       30.03S
WATERFRONT PRK   N/A     83  77  81 NE5       30.01F HX  92
MOUNT PLEASANT FAIR      79  75  89 CALM      30.03S
JOHNS ISLAND   MOCLDY    82  75  78 E6G13     30.03S
PINOPOLIS        N/A     81  75  83 E7        29.97F
MONCKS CORNER  CLOUDY    77  73  88 CALM      30.04S
SUMMERVILLE    MOCLDY    79  75  89 CALM      30.05S
BEAUFORT MCAS  CLOUDY    75  73  93 CALM      30.03F
BEAUFORT ARPT  FAIR      77  73  88 N8        30.02F
HILTON HEAD IS PTCLDY    81  77  89 N5        30.02F
WALTERBORO     CLOUDY    77  77 100 CALM      30.06S
ALLENDALE      CLOUDY    75  72  88 CALM      30.05S THUNDER

...SOUTHERN MIDLANDS AND PEE DEE...

CITY           SKY/WX    TMP DP  RH WIND       PRES   REMARKS
GEORGETOWN     FAIR      81  73  78 NE3       30.05S
KINGSTREE      FAIR      75  72  88 CALM      30.04S
ORANGEBURG     CLOUDY    79  75  87 SW3       30.05R
BARNWELL       NOT AVBL
AIKEN          FAIR      81  75  83 E3        30.09S
MANNING        FAIR      79  72  78 CALM      30.05S
COLUMBIA       PTSUNNY   84  72  67 E5        30.04S
SUMTER         CLOUDY    84  71  65 E7        30.03S
FLORENCE       CLOUDY    84  73  69 SW6       30.05F HX  90
MYRTLE BEACH   PTCLDY    84  66  54 E6        30.06S
N MYRTLE BEACH CLOUDY    84  73  69 E3        30.04S HX  90

$$

GAZ063-065-086>088-099>101-113>116-118-119-134>141-150-300000-
...SOUTHEAST GEORGIA...

CITY           SKY/WX    TMP DP  RH WIND       PRES   REMARKS
SAVANNAH ARPT  CLOUDY    77  72  84 NE9       30.02F
HUNTER AAF     CLOUDY    80  76  90 NE6       29.99F
FORT STEWART   CLOUDY    84  75  73 NE6       29.99S HX  91
STATESBORO     TSTM      77  74  92 N3        30.04R
SYLVANIA       NOT AVBL
CLAXTON        FAIR      86  74  67 E8G16     30.01F THUNDER HX  93

...CSRA...CENTRAL AND FAR SOUTHEAST GEORGIA...

CITY           SKY/WX    TMP DP  RH WIND       PRES   REMARKS
THOMSON        NOT AVBL
AUGUSTA-BUSH   CLOUDY    77  73  87 CALM      30.04F
AUGUSTA-DANIEL LGT RAIN  82  72  71 S6        30.06R
SWAINSBORO     FAIR      88  68  51 E8        30.03R HX  91
VIDALIA        MOSUNNY   86  75  70 SE9       30.02R HX  95
EASTMAN        FAIR      88  60  38 SE5       30.03R
HAZLEHURST     MOCLDY    85  76  74 E3        30.00R HX  95
ALMA           SUNNY     86  70  58 E5        29.99S HX  90
WAYCROSS         N/A     89  73  59 E10       29.99R HX  97
JESUP          FAIR      86  77  74 E6        30.00S HX  97
BAXLEY         FAIR      86  79  79 NE8       30.01R HX  99
BRUNSWICK      CLOUDY    84  77  79 E10       30.00S HX  94
SAINT SIMONS   MOSUNNY   85  73  67 E13       29.99S HX  91

$$

SCZ027-028-034-036>038-045-046-048>050-GAZ119-141-300000-
...LAKE AND SUPPLEMENTAL COASTAL OBSERVATIONS...

STATION/POSITION TIME  TEMP    WIND        PRES    WAVE   SWELL
                       AIR SEA DIR/SP/G            HT/PER HT/PER/DIR
                 (UTC) (F)     (DEG/KT/KT) (MB)    (FT/S) (FT/S/D)
WINYAH BAY       2200   83      70/  6     1017.0
LAKE MURRAY      2200   88     100/  5/  8 1016.3S
ACE BASIN NERRS  2200   74      30/  1     1017.0F
FORT PULASKI     2300   80 85   10/  9/ 12   N/A
SAPELO ISLAND    2300   85      60/  9     1016.0S

$$

ANZ835-935-AMZ111-154-330-350-352-354-370-450-454-472-300000-
...C-MAN AND BUOY OBSERVATIONS...

STATION/POSITION TIME  TEMP    WIND        PRES    WAVE   SWELL
                       AIR SEA DIR/SP/G            HT/PER HT/PER/DIR
                 (UTC) (F)     (DEG/KT/KT) (MB)    (FT/S) (FT/S/D)
BUOY 41004       2250   84 85   40/ 12/ 14 1015.8F   3/12   3/100/12
BUOY 41008       2250   83 85   50/ 16/ 17 1015.0F   3/14   2/120/14
FOLLY BEACH CMAN 2300   82      60/ 14/ 15 1017.0F
CAPERS NEARSHORE 2308   81 84   30/ 10/ 14 1016.5F
FRIPP NEARSHORE  2308   83 86   80/ 12/ 17 1015.3F


STATION/POSITION TIME  TEMP    WIND        PRES    WAVE   SWELL
                       AIR SEA DIR/SP/G            HT/PER HT/PER/DIR
                 (UTC) (F)     (DEG/KT/KT) (MB)    (FT/S) (FT/S/D)
5E ST. MARYS GA  2301      85                N/A     4/14   2/100/14
FRYING PAN BUOY  2300   83 85   20/ 12/ 16 1016.3F
BUOY 41025       2250   83 84   50/ 17/ 19 1016.4R   6/12   3/110/12
CAPE LOOKOUT NC  2300   82      30/ 21/ 23 1016.7F
BUOY 41002       2250   83 84  310/ 12/ 14 1014.7F   5/12   5/100/12
BUOY 41010       NOT AVBL
ST AUGUSTINE FL  2300   83 85   90/ 11/ 12 1015.8R


$$




USA.gov is the U.S. government's official web portal to all federal, state and local government web resources and services.